DMSP 5D-2 F13 DEB, 40479

Orbit data source: Space-Track

DMSP 5D-2 F13 DEB, 40479 is space debris in SSO originally from a launch on Fri, 24 Mar 1995 UTC launched from the Air Force Western Test Range (AFWTR). Debris objects in space refer to the collection of defunct objects orbiting the Earth. Examples of debris include non-operational satellites, rocket bodies, and fragments generated from explosions, collisions, or faulty payload assembly.

Loading next visibility...
Identifier
40479, 1995-015BX
Orbit
SSO
Country
Flag of USUS
Related business
Manufacturer
Unknown
Mission
Spacecraft
Bus & Motor
Unknown
Mass
Unknown
Launch date (UTC)
1995-03-24 (31 years ago)
Launch vehicle
Unknown
Launch site
Air Force Western Test Range (AFWTR)
Object type
Payload
Rocket body
Debris
Shape & HBR
Unknown shape, 0.1 m
Radar Cross Section
Small (<0.1 m²)

Expand to show TLE details & history
Last TLE update: 22 hours ago

TLE from 22 hours ago
0 DMSP 5D-2 F13 DEB
1 40479U 95015BX  26125.01425029  .00000889  00000-0  41925-3 0  9992
2 40479  98.7578 145.3328 0004297 141.4198 218.7288 14.22364903576947
Epoch: 2026-05-05T00:20Z
TLE epoch observation values (Epoch: 2026-05-05T00:20:31.225Z)
Latitude
0.00007°
Longitude
-82.69249°
Altitude
822.695 km
Speed
7.44 km/s
True Right ascension
09h 41m 19s
True Declination
0° 00' 00"
Sunlit
Object was in daylight at epoch
Visualization orbit readout
Latitude
Unknown
Longitude
Unknown
Altitude
Unknown
Speed
Unknown
Apparent Right ascension
Unknown
Apparent Declination
Unknown
Sunlit
N/A
Visualization observer readout
Local Sidereal Time
06:10:55
Azimuth
Unknown
Elevation
Unknown
Doppler factor
Unknown
Orbital elements
Apogee altitude
817.614 km
Perigee altitude
811.433 km
Semi-major axis
7,192.661 km
Eccentricity
0.00043
Inclination
98.7578°
RAAN
145.3328°
Arg. of periapsis
141.4198°
True anomaly
218.69801°
Mean anomaly
218.7288°
Eccentric anomaly
218.7134°
Mean motion
3.55802 °/min
Orbital period
101.18 mins
BSTAR
0.00041925
Loading maneuver chart data...
Computing Atmospheric mass density...

Documentation

Showing up to 5 results
|